North Adams, MA

1:48 PM EST on December 06, 2019 (GMT -0500)
Harriman And West

Weather History for KAQW - November, 2019

Change the Weather History Date:

Saturday, November 16, 2019

  Actual Average Record
Temperature  
Mean Temperature 23 °F -  
Max Temperature 32 °F 44 °F 70 °F (2005)
Min Temperature 14 °F 28 °F 12 °F (1996)
Degree Days  
Heating Degree Days 42    
Moisture  
Dew Point 6 °F    
Average Humidity 49    
Maximum Humidity 80    
Minimum Humidity 34    
Precipitation  
Precipitation 0.00 in - - ()
Sea Level Pressure  
Sea Level Pressure 30.49 in    
Wind  
Wind Speed 6 mph ()    
Max Wind Speed 12 mph    
Max Gust Speed 23 mph    
Visibility 10.0 miles    
Events      
Averages and records for this station are not official NWS values.
T = Trace of Precipitation, MM = Missing Value Source: Averaged Metar Reports

Daily Weather History Graph

Daily Weather History Graph

Search for Another Location

Airport or City:

Astronomy

Nov. 16, 2019 Rise Set
Actual Time 6:45 AM EST 4:29 PM EST
Civil Twilight 6:14 AM EST 4:59 PM EST
Nautical Twilight 5:40 AM EST 5:33 PM EST
Astronomical Twilight 5:07 AM EST 6:07 PM EST
Moon 7:56 PM EST (11/16) 10:39 AM EST (11/16)
Length of Visible Light 10h 44m
Length of Day
9h 43m
Waning Gibbous, 82% of the Moon is Illuminated
Nov 16
Waning Gibbous
Nov 19
Last Quarter
Nov 26
New
Dec 4
First Quarter
Dec 12
Full

Hourly Weather History & Observations

Time (EST) Temp. Windchill Dew Point Humidity Pressure Visibility Wind Dir Wind Speed Gust Speed Precip Events Conditions
12:52 AM 30.9 °F 22.2 °F 16.0 °F 54% 30.30 in 10.0 mi NW 10.4 mph 23.0 mph N/A   Clear
1:52 AM 28.0 °F 20.8 °F 7.0 °F 41% 30.34 in 10.0 mi Variable 6.9 mph - N/A   Clear
2:52 AM 26.1 °F 20.5 °F 8.1 °F 47% 30.37 in 10.0 mi WNW 4.6 mph - N/A   Clear
3:52 AM 25.0 °F 20.7 °F -0.0 °F 34% 30.40 in 10.0 mi NW 3.5 mph - N/A   Clear
4:52 AM 23.0 °F 15.8 °F -0.0 °F 37% 30.43 in 10.0 mi West 5.8 mph - N/A   Clear
5:52 AM 21.0 °F 13.4 °F 5.0 °F 50% 30.48 in 10.0 mi West 5.8 mph - N/A   Clear
6:52 AM 19.0 °F 12.3 °F 7.0 °F 59% 30.50 in 10.0 mi WNW 4.6 mph - N/A   Clear
7:52 AM 19.9 °F 10.1 °F 7.0 °F 57% 30.55 in 10.0 mi WSW 8.1 mph - N/A   Clear
8:52 AM 21.9 °F 13.4 °F 6.1 °F 51% 30.56 in 10.0 mi West 6.9 mph - N/A   Clear
9:52 AM 25.0 °F 17.1 °F 7.0 °F 46% 30.56 in 10.0 mi West 6.9 mph - N/A   Clear
10:52 AM 27.0 °F 18.7 °F 7.0 °F 43% 30.55 in 10.0 mi West 8.1 mph - N/A   Clear
11:52 AM 28.9 °F 19.2 °F 8.1 °F 41% 30.53 in 10.0 mi West 11.5 mph - N/A   Clear
12:52 PM 30.9 °F 22.8 °F 8.1 °F 38% 30.51 in 10.0 mi West 9.2 mph - N/A   Clear
1:52 PM 32.0 °F 23.6 °F 7.0 °F 35% 30.49 in 10.0 mi NW 10.4 mph 17.3 mph N/A   Clear
2:52 PM 30.9 °F 23.5 °F 7.0 °F 37% 30.49 in 10.0 mi NNW 8.1 mph - N/A   Clear
3:52 PM 28.9 °F 19.8 °F 6.1 °F 38% 30.49 in 10.0 mi NNW 10.4 mph - N/A   Clear
4:52 PM 26.1 °F 16.2 °F 3.0 °F 37% 30.52 in 10.0 mi WSW 10.4 mph - N/A   Clear
5:52 PM 24.1 °F 16.0 °F 1.0 °F 37% 30.54 in 10.0 mi WSW 6.9 mph - N/A   Clear
6:52 PM 21.9 °F 12.5 °F 1.9 °F 42% 30.55 in 10.0 mi WSW 8.1 mph - N/A   Clear
7:52 PM 19.9 °F - 5.0 °F 52% 30.54 in 10.0 mi Calm Calm - N/A   Clear
8:52 PM 17.1 °F - 7.0 °F 65% 30.55 in 10.0 mi Calm Calm - N/A   Clear
9:52 PM 15.1 °F - 8.1 °F 74% 30.55 in 10.0 mi Calm Calm - N/A   Clear
10:52 PM 14.0 °F - 8.1 °F 77% 30.53 in 10.0 mi Calm Calm - N/A   Clear
11:52 PM 14.0 °F - 9.0 °F 80% 30.51 in 10.0 mi Calm Calm - N/A   Clear